Location: Burland Observatory
(39.4088°N, 105.4217°W)
Time: 13:17:08
(UTC-07:00)

Explorer 7 - Pass Details

Date: 15 December 2019
Orbit: 485 x 679 km, 50.3° (Epoch: 28 January)

Event Time Altitude Azimuth Distance (km) Brightness Sun altitude
Rises 17:58:05 0° 304° (WNW) 3,022 11.2 -14.7°
Reaches altitude 10° 18:00:46 10° 316° (NW) 2,113 10.1 -15.2°
Maximum altitude 18:04:57 27° 14° (NNE) 1,287 8.4 -16.0°
Enters shadow 18:06:22 24° 42° (NE) 1,402 8.4 -16.3°
